This is the latest recevied weather packets stored in our database for station/object SV1RVP-13. If no packets are shown the sender has not sent any weather packets the latest 10 day(s).
| Time | Temp. | Humidity | Pressure | Rain* | Wind** | Luminosity | Snow |
|---|---|---|---|---|---|---|---|
| 1778135910 | 20.56° C | 62% | 1017.5 hPa | 0 mm | - | - | - |
| 1778135309 | 20.56° C | 61% | 1017.3 hPa | 0 mm | - | - | - |
| 1778134711 | 20.56° C | 60% | 1017.3 hPa | 0 mm | - | - | - |
| 1778134130 | 20.56° C | 60% | 1017.2 hPa | 0 mm | - | - | - |
| 1778133516 | 20° C | 60% | 1017.2 hPa | 0 mm | - | - | - |
| 1778132917 | 20° C | 61% | 1017.2 hPa | 0 mm | - | - | - |
| 1778132319 | 20° C | 61% | 1016.8 hPa | 0 mm | - | - | - |
| 1778131707 | 19.44° C | 62% | 1016.4 hPa | 0 mm | - | - | - |
| 1778131123 | 18.89° C | 63% | 1016.4 hPa | 0 mm | - | - | - |
| 1778130526 | 18.89° C | 63% | 1016.4 hPa | 0 mm | - | - | - |
| 1778129912 | 18.33° C | 64% | 1016.4 hPa | 0 mm | - | - | - |
| 1778129312 | 17.78° C | 64% | 1016.4 hPa | 0 mm | - | - | - |
| 1778128711 | 17.78° C | 64% | 1016.3 hPa | 0 mm | - | - | - |
| 1778128131 | 17.78° C | 65% | 1016.4 hPa | 0 mm | - | - | - |
| 1778127515 | 17.22° C | 65% | 1016.4 hPa | 0 mm | - | - | - |
| 1778126914 | 17.22° C | 66% | 1016.6 hPa | 0 mm | - | - | - |
| 1778126333 | 17.22° C | 67% | 1016.6 hPa | 0 mm | - | - | - |
| 1778125723 | 17.22° C | 67% | 1016.6 hPa | 0 mm | - | - | - |
| 1778125121 | 17.22° C | 67% | 1016.6 hPa | 0 mm | - | - | - |
| 1778124520 | 17.22° C | 67% | 1016.3 hPa | 0 mm | - | - | - |
| 1778123908 | 17.22° C | 66% | 1016.3 hPa | 0 mm | - | - | - |
| 1778123309 | 17.22° C | 66% | 1016.2 hPa | 0 mm | - | - | - |
| 1778122723 | 17.22° C | 66% | 1016.2 hPa | 0 mm | - | - | - |
| 1778122112 | 17.78° C | 66% | 1016 hPa | 0 mm | - | - | - |
| 1778121514 | 17.78° C | 67% | 1016.1 hPa | 0 mm | - | - | - |
* Rain since midnight (hover to see other rain measurements)
** Current wind speed in m/s (hover to see current wind gust speed)